DW8587 Weather Reports


Display with metric or nautical units.
time (UTC)temp
F
wind
direction
speed
MPH
gust
MPH
rain 1hr
in
rain 24hr
in
rain mn
in
humidity
%
barometer
mb
20260504044530 52 45 1.0 3.0 0.00 0.00 0.00 75 1016.0
20260504043023 52 46 2.0 5.0 0.00 0.00 0.00 75 1015.9
20260504041519 52 47 3.0 5.0 0.00 0.00 0.00 75 1015.9
20260504040018 52 41 1.0 3.0 0.00 0.00 0.00 75 1015.9
20260504034516 52 41 1.0 2.0 0.00 0.00 0.00 76 1016.0
20260504033015 52 41 1.0 4.0 0.00 0.00 0.00 75 1015.9
20260504031516 52 53 1.0 4.0 0.00 0.00 0.00 76 1015.8
20260504030030 53 18 1.0 3.0 0.00 0.00 0.00 76 1016.0
20260504024510 53 42 3.0 6.0 0.00 0.00 0.00 76 1016.0
20260504023008 53 28 2.0 3.0 0.00 0.00 0.00 76 1016.1
20260504021504 54 26 1.0 3.0 0.00 0.00 0.00 76 1016.1
20260504020002 55 27 1.0 3.0 0.00 0.00 0.00 75 1016.0
20260504014600 56 44 2.0 4.0 0.00 0.00 0.00 74 1016.0
20260504013110 56 44 0.0 2.0 0.00 0.00 0.00 74 1016.1
20260504011557 56 23 2.0 3.0 0.00 0.00 0.00 74 1015.9
20260504010112 56 48 2.0 4.0 0.00 0.00 0.00 74 1015.9
20260504004621 56 48 2.0 4.0 0.00 0.00 0.00 75 1016.0
20260504003054 57 48 1.0 3.0 0.00 0.00 0.00 74 1016.3
20260504001558 57 48 3.0 5.0 0.00 0.00 0.00 74 1016.4
20260504000047 57 329 1.0 3.0 0.00 0.00 0.00 74 1016.6
20260503234548 57 42 1.0 4.0 0.00 0.00 0.00 74 1016.7
20260503233044 57 41 2.0 3.0 0.00 0.00 0.00 73 1016.8
20260503231543 57 40 1.0 3.0 0.00 0.00 0.00 73 1016.8
20260503230041 58 44 1.0 3.0 0.00 0.00 0.00 72 1016.9
20260503224541 58 44 1.0 2.0 0.00 0.00 0.00 71 1016.9
20260503223041 58 44 1.0 3.0 0.00 0.00 0.00 70 1016.9
20260503221542 58 44 1.0 3.0 0.00 0.00 0.00 70 1016.9
20260503220035 59 44 2.0 4.0 0.00 0.00 0.00 68 1016.8
20260503214534 60 103 2.0 3.0 0.00 0.00 0.00 66 1016.7
20260503213044 60 173 0.0 2.0 0.00 0.00 0.00 64 1016.7
20260503211532 61 173 0.0 2.0 0.00 0.00 0.00 61 1016.6
20260503210032 61 173 0.0 2.0 0.00 0.00 0.00 60 1016.5
20260503204546 62 173 0.0 2.0 0.00 0.00 0.00 59 1016.6
20260503203032 62 173 0.0 1.0 0.00 0.00 0.00 57 1016.6
20260503201630 63 173 0.0 1.0 0.00 0.00 0.00 55 1016.5
20260503200029 63 173 0.0 1.0 0.00 0.00 0.00 53 1016.3
20260503194529 64 173 0.0 0.0 0.00 0.00 0.00 52 1016.3
20260503193035 65 173 0.0 1.0 0.00 0.00 0.00 49 1016.1
20260503191528 66 173 0.0 2.0 0.00 0.00 0.00 47 1016.0
20260503190036 66 173 1.0 3.0 0.00 0.00 0.00 47 1015.7
20260503184536 68 169 2.0 7.0 0.00 0.00 0.00 47 1015.6
20260503183027 68 181 4.0 8.0 0.00 0.00 0.00 47 1015.6
20260503181526 69 158 1.0 4.0 0.00 0.00 0.00 45 1015.5
20260503180026 70 202 0.0 2.0 0.00 0.00 0.00 45 1015.5
20260503174525 70 202 0.0 3.0 0.00 0.00 0.00 44 1015.5
20260503173032 70 202 1.0 3.0 0.00 0.00 0.00 43 1015.4
20260503171523 71 205 2.0 4.0 0.00 0.00 0.00 44 1015.5
20260503120116 70 207 5.0 10.0 0.00 0.00 0.00 45 1017.8
20260503081525 65 179 2.0 7.0 0.00 0.00 0.00 56 1018.5